STARLINK-2595 (48407 NORAD) Tracking and Keplerian Element Data

This shows tracking and keplerian element data for the satellite.

Feedback or suggestion? Click here.




ElementValue
Catalog48407
NameSTARLINK-2595
Epoch Orbit365
Epoch Day214.91667824
Epoch Year2021
RAAN322.4941
Inclination53.0469
Eccentricity0.0001408
Argument of Perigee90.1858
Mean Anonmoly80.5822
Mean Motion15.08319658
Decay Rate-0.0105236
L11 48407U 21038BG 21214.91667824 -.01052360 00000-0 -72361-1 0 9999
L22 48407 53.0469 322.4941 0001408 90.1858 80.5822 15.08319658 3656

Live tracking and technical data element details for STARLINK-2595 (NORAD 48407). STARLINK-2595 can be tracked NOW for your location showing map with azimuth and elevation plus other details from your city location.

Track the satellite on the map from your city or location and see movement details for azimuth, elevation, latitude, longitude, range, height, and movement on the map or in text.







IsCatalogInMostPopularTable: catalog: 48407, numindb: 29
Update: records affected: 1



GetName: 48407 STARLINK-2595

Hit Count: updated at: Tue, 03 Aug 2021 20:36:19 GMT